Regional Weather Roundup
Issued by NWS Cleveland, OH

Home | Current Version | Previous Version | Text Only | Print | Product List | Glossary Off
Versions: 1 2 3 4 5 6 7 8 9 10 11 12 13 14 15 16 17 18 19 20 21 22 23 24 25 26 27 28 29 30 31 32 33 34 35 36 37 38 39 40 41 42 43 44 45 46 47 48 49 50

449
ASUS41 KCLE 261100
RWRCLE
OHIO REGIONAL WEATHER ROUNDUP
NATIONAL WEATHER SERVICE WILMINGTON, OH
700 AM EDT THU MAY 26 2016

NOTE: "FAIR" INDICATES FEW OR NO CLOUDS BELOW 12,000 FEET WITH NO
SIGNIFICANT WEATHER AND/OR OBSTRUCTIONS TO VISIBILITY.

OHZ001>008-015>018-024>027-034-035-043-044-261200-
   NORTHWEST OHIO

CITY           SKY/WX    TMP DP  RH WIND       PRES   REMARKS
DEFIANCE       FAIR      69  62  78 S6        30.00R
FINDLAY        MOCLDY    68  60  75 S9        30.01S
TOLEDO EXPRESS FAIR      67  62  84 SW5       29.99R
TOLEDO EXEC    MOCLDY    68  61  78 SW7       30.00R
LIMA           FAIR      67  61  81 S8        30.02F
$$

OHZ009>014-019>023-028>033-038-089-261200-
   NORTHEAST OHIO

CITY           SKY/WX    TMP DP  RH WIND       PRES   REMARKS
CLE-HOPKINS    MOCLDY    69  61  75 S9        30.05S
CLE-LAKEFRONT  FAIR      71  61  70 S9        30.02S
CUY CO. ARPT   MOCLDY    70  63  78 S12       30.05
LORAIN-ELYRIA  FAIR      65  59  81 S7        30.03S
ASHTABULA      PTSUNNY   67  59  75 S7        30.07R
AKRON-CANTON   FAIR      67  60  78 S9        30.08S
WOOSTER        NOT AVBL
MANSFIELD      FAIR      65  62  90 S12       30.06R
YOUNGSTOWN     CLOUDY    68  58  70 S6        30.08S
$$

OHZ042-051>053-060>062-070>072-077>081-261200-
  SOUTHWEST OHIO

CITY           SKY/WX    TMP DP  RH WIND       PRES   REMARKS
CINC-COVINGTON MOCLDY    66  63  90 S9        30.08R
CINC-LUNKEN    FAIR      63  63 100 SW3       30.09R
HAMILTON       FAIR      67  63  87 SW6       30.08R
DAYTON         NOT AVBL
WRIGHT-PAT AFB NOT AVBL
DAYTON GENERAL MOCLDY    66  61  84 S6        30.06S
WILMINGTON     FAIR      65  62  90 S7        30.07S
$$

OHZ036-037-039>041-045>050-054>059-063>069-073>076-082>088-261200-
  CENTRAL AND SOUTHEAST OHIO

CITY           SKY/WX    TMP DP  RH WIND       PRES   REMARKS
COLUMBUS       CLOUDY    66  62  87 SE3       30.06S
OSU AIRPORT    FAIR      67  62  84 S7        30.05
BOLTON FIELD   NOT AVBL
RICKENBACK AFB NOT AVBL
NEWARK         FAIR      66  61  84 S5        30.07R
MARION           N/A    N/A N/A N/A MISG      30.05S
LANCASTER      FAIR      67  61  81 SE7       30.08S
ZANESVILLE     FAIR      69  61  75 S8        30.10R
NEW PHILLY     FAIR      69  60  73 VRB3      30.09S
$$




USA.gov is the U.S. government's official web portal to all federal, state and local government web resources and services.